When you browse on this site, cookies collect data to enhance your experience and personalize the content and advertising you see.
Visit our Privacy Policy to learn more. By continuing to use the site, you agree to this use of cookies and data.
EN

Hourly Weather Newcastle

Today, 6 July, Monday

Time Temperature Precipitation Wind Pressure Humidity
00:00 +8°C° 0 mm 3 mps 768 mmHg 85%
01:00 +7°C° 0 mm 3 mps 768 mmHg 87%
02:00 +7°C° 0 mm 3 mps 768 mmHg 88%
03:00 +7°C° 0 mm 3 mps 768 mmHg 88%
04:00 +5°C° 0 mm 3 mps 768 mmHg 88%
05:00 +5°C° 0 mm 3 mps 768 mmHg 88%
06:00 +5°C° 0 mm 3 mps 768 mmHg 88%
07:00 +5°C° 0 mm 3 mps 768 mmHg 87%
08:00 +8°C° 0 mm 3 mps 769 mmHg 80%
09:00 +10°C° 0 mm 3 mps 769 mmHg 72%
10:00 +13°C° 0 mm 3 mps 770 mmHg 64%
11:00 +14°C° 0 mm 3 mps 769 mmHg 59%
12:00 +16°C° 0 mm 3 mps 768 mmHg 54%
13:00 +18°C° 0 mm 2 mps 768 mmHg 50%
14:00 +17°C° 0 mm 3 mps 768 mmHg 54%
15:00 +17°C° 0 mm 3 mps 768 mmHg 59%
16:00 +16°C° 0 mm 3 mps 768 mmHg 64%
17:00 +13°C° 0 mm 3 mps 768 mmHg 72%
18:00 +12°C° 0 mm 3 mps 769 mmHg 81%
19:00 +10°C° 0 mm 3 mps 770 mmHg 90%
20:00 +10°C° 0 mm 3 mps 770 mmHg 89%
21:00 +10°C° 0 mm 3 mps 770 mmHg 89%
22:00 +10°C° 0 mm 2 mps 770 mmHg 88%
23:00 +10°C° 0 mm 2 mps 770 mmHg 87%

Tomorrow, 7 July, Tuesday

Time Temperature Precipitation Wind Pressure Humidity
00:00 +10°C° 0 mm 3 mps 770 mmHg 86%
01:00 +10°C° 0 mm 3 mps 770 mmHg 86%
02:00 +10°C° 0 mm 3 mps 770 mmHg 89%
03:00 +9°C° 0 mm 3 mps 770 mmHg 92%
04:00 +8°C° 0 mm 3 mps 770 mmHg 95%
05:00 +8°C° 0 mm 3 mps 770 mmHg 95%
06:00 +7°C° 0 mm 3 mps 770 mmHg 95%
07:00 +7°C° 0 mm 3 mps 771 mmHg 96%
08:00 +9°C° 0 mm 3 mps 771 mmHg 87%
09:00 +11°C° 0 mm 3 mps 771 mmHg 78%
10:00 +14°C° 0 mm 3 mps 771 mmHg 69%
11:00 +16°C° 0 mm 3 mps 771 mmHg 63%
12:00 +17°C° 0 mm 3 mps 770 mmHg 58%
13:00 +18°C° 0 mm 3 mps 769 mmHg 52%
14:00 +17°C° 0 mm 3 mps 769 mmHg 57%
15:00 +15°C° 0 mm 4 mps 769 mmHg 62%
16:00 +15°C° 0 mm 4 mps 770 mmHg 67%
17:00 +13°C° 0.1 mm 3 mps 770 mmHg 75%
18:00 +12°C° 0.1 mm 3 mps 770 mmHg 83%
19:00 +10°C° 0.1 mm 3 mps 771 mmHg 90%
20:00 +11°C° 0.4 mm 3 mps 771 mmHg 91%
21:00 +11°C° 0.4 mm 3 mps 771 mmHg 91%
22:00 +12°C° 0.4 mm 3 mps 772 mmHg 92%
23:00 +12°C° 0.1 mm 3 mps 771 mmHg 92%

Day after tomorrow, 8 July, Wednesday

Time Temperature Precipitation Wind Pressure Humidity
00:00 +12°C° 0.1 mm 3 mps 771 mmHg 92%
01:00 +12°C° 0.1 mm 3 mps 771 mmHg 92%
02:00 +12°C° 0.1 mm 3 mps 771 mmHg 92%
03:00 +12°C° 0.1 mm 3 mps 771 mmHg 92%
04:00 +12°C° 0.1 mm 3 mps 771 mmHg 91%
05:00 +12°C° 0 mm 3 mps 771 mmHg 91%
06:00 +12°C° 0 mm 3 mps 772 mmHg 90%
07:00 +12°C° 0 mm 2 mps 772 mmHg 89%
08:00 +13°C° 0 mm 2 mps 772 mmHg 86%
09:00 +14°C° 0 mm 2 mps 772 mmHg 83%
10:00 +15°C° 0 mm 2 mps 772 mmHg 80%
11:00 +16°C° 0 mm 3 mps 772 mmHg 72%
12:00 +16°C° 0 mm 3 mps 771 mmHg 65%
13:00 +17°C° 0 mm 3 mps 771 mmHg 58%
14:00 +17°C° 0 mm 3 mps 771 mmHg 60%
15:00 +16°C° 0 mm 3 mps 770 mmHg 61%
16:00 +16°C° 0 mm 3 mps 770 mmHg 63%
17:00 +14°C° 0 mm 2 mps 771 mmHg 69%
18:00 +13°C° 0 mm 2 mps 771 mmHg 75%
19:00 +10°C° 0 mm 2 mps 771 mmHg 81%
20:00 +10°C° 0 mm 2 mps 771 mmHg 82%
21:00 +10°C° 0 mm 2 mps 772 mmHg 84%
22:00 +9°C° 0 mm 2 mps 772 mmHg 85%
23:00 +9°C° 0 mm 2 mps 772 mmHg 86%

9 July, Thursday

Time Temperature Precipitation Wind Pressure Humidity
00:00 +10°C° 0 mm 1 mps 771 mmHg 88%
01:00 +10°C° 0 mm 1 mps 771 mmHg 89%
02:00 +9°C° 0 mm 1 mps 771 mmHg 91%
03:00 +9°C° 0 mm 1 mps 771 mmHg 92%
04:00 +9°C° 0 mm 1 mps 771 mmHg 93%
05:00 +9°C° 0 mm 1 mps 771 mmHg 93%
06:00 +9°C° 0 mm 1 mps 771 mmHg 94%
07:00 +8°C° 0 mm 1 mps 772 mmHg 94%
08:00 +11°C° 0 mm 1 mps 772 mmHg 86%
09:00 +13°C° 0 mm 1 mps 772 mmHg 77%
10:00 +15°C° 0 mm 1 mps 772 mmHg 69%
11:00 +16°C° 0 mm 1 mps 771 mmHg 65%
12:00 +18°C° 0 mm 1 mps 771 mmHg 62%
13:00 +19°C° 0 mm 1 mps 770 mmHg 58%
14:00 +19°C° 0 mm 1 mps 770 mmHg 62%
15:00 +17°C° 0 mm 2 mps 770 mmHg 66%
16:00 +16°C° 0 mm 2 mps 769 mmHg 71%
17:00 +15°C° 0 mm 2 mps 770 mmHg 77%
18:00 +13°C° 0 mm 3 mps 770 mmHg 83%
19:00 +12°C° 0 mm 3 mps 770 mmHg 89%
20:00 +12°C° 0 mm 3 mps 770 mmHg 89%
21:00 +12°C° 0 mm 3 mps 770 mmHg 88%
22:00 +12°C° 0 mm 3 mps 770 mmHg 88%
23:00 +11°C° 0 mm 3 mps 770 mmHg 88%

10 July, Friday

Time Temperature Precipitation Wind Pressure Humidity
00:00 +11°C° 0 mm 3 mps 770 mmHg 88%
01:00 +11°C° 0 mm 3 mps 769 mmHg 88%
02:00 +11°C° 0 mm 3 mps 769 mmHg 90%
03:00 +10°C° 0 mm 3 mps 769 mmHg 92%
04:00 +10°C° 0 mm 2 mps 769 mmHg 93%
05:00 +10°C° 0 mm 2 mps 769 mmHg 94%
06:00 +10°C° 0 mm 2 mps 769 mmHg 94%
07:00 +9°C° 0 mm 2 mps 769 mmHg 95%
08:00 +12°C° 0 mm 2 mps 769 mmHg 87%
09:00 +14°C° 0 mm 2 mps 769 mmHg 79%
10:00 +15°C° 0 mm 2 mps 769 mmHg 71%
11:00 +17°C° 0 mm 2 mps 768 mmHg 65%
12:00 +19°C° 0 mm 1 mps 767 mmHg 59%
13:00 +20°C° 0 mm 1 mps 766 mmHg 53%
14:00 +20°C° 0 mm 1 mps 766 mmHg 55%
15:00 +19°C° 0 mm 1 mps 766 mmHg 58%
16:00 +19°C° 0 mm 1 mps 766 mmHg 61%
17:00 +16°C° 0 mm 2 mps 766 mmHg 66%
18:00 +15°C° 0 mm 2 mps 766 mmHg 71%
19:00 +13°C° 0 mm 2 mps 766 mmHg 76%
20:00 +13°C° 0 mm 2 mps 766 mmHg 78%
21:00 +12°C° 0 mm 2 mps 766 mmHg 80%
22:00 +12°C° 0 mm 2 mps 766 mmHg 83%
23:00 +12°C° 0 mm 2 mps 765 mmHg 84%

11 July, Saturday

Time Temperature Precipitation Wind Pressure Humidity
00:00 +10°C° 0 mm 2 mps 765 mmHg 85%
01:00 +10°C° 0 mm 2 mps 765 mmHg 87%
02:00 +10°C° 0 mm 2 mps 764 mmHg 87%
03:00 +10°C° 0 mm 2 mps 764 mmHg 87%
04:00 +10°C° 0 mm 2 mps 763 mmHg 87%
05:00 +10°C° 0.1 mm 2 mps 763 mmHg 87%
06:00 +10°C° 0.1 mm 3 mps 763 mmHg 87%
07:00 +11°C° 0.1 mm 3 mps 763 mmHg 87%
08:00 +11°C° 0.9 mm 3 mps 763 mmHg 89%
09:00 +12°C° 0.9 mm 2 mps 763 mmHg 91%
10:00 +13°C° 0.9 mm 2 mps 763 mmHg 93%
11:00 +13°C° 0 mm 3 mps 762 mmHg 88%
12:00 +14°C° 0 mm 4 mps 762 mmHg 83%
13:00 +15°C° 0 mm 4 mps 761 mmHg 77%
14:00 +17°C° 0 mm 4 mps 761 mmHg 76%
15:00 +16°C° 0 mm 5 mps 761 mmHg 75%
16:00 +16°C° 0 mm 5 mps 761 mmHg 73%
17:00 +15°C° 0 mm 4 mps 761 mmHg 79%
18:00 +13°C° 0 mm 4 mps 762 mmHg 86%
19:00 +12°C° 0 mm 4 mps 762 mmHg 92%
20:00 +12°C° 0 mm 4 mps 762 mmHg 92%
21:00 +11°C° 0 mm 4 mps 763 mmHg 93%
22:00 +11°C° 0 mm 3 mps 763 mmHg 93%
23:00 +11°C° 0 mm 3 mps 763 mmHg 93%
Show more